Airfield :
LOGIN :

Register | Disclaimer

   EN    FR    IT 

 










Legend :    VFR   Marginal VFR   IFR   Intensive IFR   Very Intensive IFR
Visi :
Ceiling :
>= 8 km
>= 3000ft
5 to 8 km
1000 to 3000 ft
1500m to 5 km
500 to 1000 ft
800 to 1500m
200 to 500 ft
< 800m
< 200 ft
Symbols :   Thunderstorms  Fog  Heavy snow  Heavy precipitations  Wind > 20 kt
SIGMETs :     Misc.  Thunderstorms  Icing  Turbulence  Mountain Waves  Volcanic Ashes







- Airport Elevation : 392 ft
- IATA code : CDG
- Download approach charts


LFPG - Paris-Aeroport Charles De Gaulle

CURRENT METAR :
  • 180500Z 01005KT CAVOK 17/10 Q1019 NOSIG

EXPIRED METARs :
  • 180430Z 36004KT 350V050 CAVOK 16/10 Q1019 NOSIG
  • 180400Z 04006KT CAVOK 16/09 Q1019 NOSIG
  • 180330Z 04007KT 010V090 CAVOK 16/09 Q1019 NOSIG
  • 180300Z 03004KT CAVOK 17/09 Q1018 NOSIG
  • 180230Z 04005KT CAVOK 16/09 Q1019 NOSIG
  • 180200Z 07003KT CAVOK 16/09 Q1019 NOSIG

TAF TAF LFPG
Valid from the 18 at 00:00 until the 19 at 06:00 UTC


172300Z 1800/1906 02006KT CAVOK TX28/1815Z TN15/1804Z
ATIS : +33 1 48 62 10 92
No reported NOTAMs for that airfield.



MET'MAP, your aeronautical weather chart ! - Copyright ORBIFLY December 2007 - Disclaimer

ORBIFLY MET'MAP TEAM :

Programming & Development : Alexandra Zaïnal
Concept & Development : Baudouin d'Aumeries
Co-Development & Prog : Marc-Olivier Méhu
Technical & hardware support : Manuel Goepfert

Contact : metmap@orbifly.com




SOURCES & CREDITS :

   NOAA